This demonstration page uses our WeatherBlox Daily Observations layout. Learn more.

Left ArrowRight Arrow

53.62937, 11.41316

Hourly Observations for August 24, 2021

Temp ( °F °C ) Dew Point ( °F °C ) Humidity (%) Winds ( mph kmh ) Pressure ( in mb ) Visibility ( mi km ) Precip ( " mm )
5:50 am 05:50 Mostly Clear 48 9 46 8 94 94 N N/A 30.36 1028 5 8 N/A
6:20 am 06:20 Mostly Sunny 46 8 46 8 100 100 N N/A 30.36 1028 6 9 N/A
6:50 am 06:50 Mostly Sunny 46 8 46 8 100 100 VRB 1 2 30.36 1028 7 11 N/A
7:20 am 07:20 Mostly Sunny 50 10 50 10 100 100 VRB 1 2 30.36 1028 7 11 N/A
7:50 am 07:50 Mostly Sunny 50 10 50 10 100 100 VRB 1 2 30.39 1029 7 11 N/A
8:20 am 08:20 Mostly Sunny 54 12 54 12 100 100 VRB 1 2 30.39 1029 7 11 N/A
8:50 am 08:50 Mostly Sunny 59 15 57 14 94 94 VRB 1 2 30.39 1029 7 11 N/A
9:20 am 09:20 Mostly Sunny 61 16 55 13 83 83 VRB 1 2 30.39 1029 7 11 N/A
9:50 am 09:50 Mostly Sunny 63 17 55 13 77 77 VRB 3 6 30.39 1029 30 48 N/A
10:20 am 10:20 Mostly Sunny 64 18 57 14 78 78 NNE 5 7 30.39 1029 30 48 N/A
10:50 am 10:50 Mostly Sunny 64 18 54 12 68 68 ENE 6 9 30.39 1029 30 48 N/A
11:20 am 11:20 Mostly Sunny 66 19 52 11 60 60 ENE 5 7 30.39 1029 30 48 N/A
11:50 am 11:50 Mostly Sunny 66 19 52 11 60 60 NE 6 9 30.39 1029 30 48 N/A
12:20 pm 12:20 Partly Cloudy 66 19 52 11 60 60 ENE 7 11 30.39 1029 30 48 N/A
12:50 pm 12:50 Mostly Sunny 66 19 50 10 56 56 NNE 6 9 30.39 1029 30 48 N/A
1:20 pm 13:20 Mostly Sunny 66 19 50 10 56 56 NNE 10 17 30.39 1029 30 48 N/A
1:50 pm 13:50 Mostly Sunny 68 20 46 8 46 46 NNE 9 15 30.39 1029 30 48 N/A
2:20 pm 14:20 Mostly Sunny 68 20 46 8 46 46 N 8 13 30.39 1029 30 48 N/A
2:50 pm 14:50 Mostly Sunny 68 20 48 9 49 49 NNE 8 13 30.39 1029 30 48 N/A
3:20 pm 15:20 Mostly Sunny 70 21 48 9 46 46 ENE 7 11 30.39 1029 30 48 N/A
3:50 pm 15:50 Mostly Sunny 68 20 45 7 43 43 NE 7 11 30.39 1029 7 11 N/A
4:20 pm 16:20 Mostly Sunny 70 21 45 7 40 40 NE 9 15 30.36 1028 7 11 N/A
4:50 pm 16:50 Mostly Sunny 70 21 46 8 43 43 ENE 8 13 30.36 1028 7 11 N/A
5:20 pm 17:20 Mostly Sunny 68 20 45 7 43 43 NE 8 13 30.36 1028 7 11 N/A
5:50 pm 17:50 Mostly Sunny 68 20 46 8 46 46 NE 7 11 30.36 1028 7 11 N/A
6:20 pm 18:20 Mostly Sunny 68 20 46 8 46 46 NE 7 11 30.36 1028 7 11 N/A
6:50 pm 18:50 Mostly Sunny 68 20 46 8 46 46 NE 7 11 30.36 1028 7 11 N/A
7:20 pm 19:20 Mostly Sunny 66 19 48 9 52 52 NE 5 7 30.36 1028 7 11 N/A
7:50 pm 19:50 Mostly Sunny 64 18 48 9 56 56 NE 3 6 30.36 1028 7 11 N/A
8:20 pm 20:20 Mostly Sunny 63 17 48 9 59 59 E 2 4 30.36 1028 7 11 N/A
8:50 pm 20:50 Mostly Clear 59 15 48 9 68 68 ESE 1 2 30.36 1028 7 11 N/A
9:20 pm 21:20 Mostly Clear 55 13 48 9 77 77 VRB 1 2 30.36 1028 7 11 N/A
9:50 pm 21:50 Mostly Clear 55 13 48 9 77 77 ESE 1 2 30.36 1028 7 11 N/A

Powered by AerisWeather